Home > Weather > Enschede > Past weeks

Flag for Netherlands Past Weather in Enschede, Netherlands — Yesterday and Last 2 Weeks

Now
54 °F

Cloudy.


Feels Like: 53 °F
Forecast: 48 / 69 °F
Wind: 5 mph from South

Location: Deelen

Current Time: May 25, 2016 at 1:10:42 PM

Latest Report: May 25, 2016 at 12:25 PM


Visibility: N/A

Pressure: 29.98 "Hg

Humidity: 88%

Dew Point: 50 °F

Location of EnschedeLocation

Past Weather in Enschede — Graph

°F

Enschede Temperature Yesterday

Maximum temperature yesterday: 57 °F (at 1:25 PM)
Minimum temperature yesterday: 48 °F (at 4:25 AM)
Average temperature yesterday: 51 °F

High & Low Weather Summary for the Past Weeks

 TemperatureHumidityPressure
High79 °F (May 11, 3:25 PM)100% (May 16, 3:55 AM)30.12 "Hg (May 16, 3:55 AM)
Low34 °F (May 16, 3:55 AM)25% (May 13, 3:25 PM)29.50 "Hg (May 12, 5:25 PM)
Average56 °F74%29.87 "Hg
* Reported May 10 11:25 AM — May 25 11:25 AM, Enschede, Weather by CustomWeather, © 2016

Note: Actual official high and low records may vary slightly from our data, if they occured in-between our weather recording intervals... More about our weather records

Advertising

Enschede Weather History for the Previous 24 Hours

Scroll right to see more
 ConditionsComfort  
Time TempWeatherWind HumidityBarometerVisibility
11:25 AM
Wed, May 25
54 °FBroken clouds.6 mph88%29.98 "HgN/A
10:55 AM52 °FFog.7 mph94%29.98 "Hg4 mi
10:25 AM52 °FFog.8 mph94%29.98 "Hg3 mi
10:03 AM52 °FFog.7 mph94%29.98 "Hg4 mi
9:55 AM52 °FDrizzle. Mostly cloudy.8 mph94%29.98 "Hg1 mi
9:25 AM50 °FDrizzle. Cloudy.6 mph100%29.98 "Hg1 mi
8:55 AM50 °FLight rain. Cloudy.6 mph100%29.98 "Hg1 mi
8:25 AM50 °FDrizzle. Mostly cloudy.7 mph100%29.98 "Hg1 mi
7:55 AM50 °FDrizzle. Mostly cloudy.6 mph94%29.98 "Hg1 mi
7:25 AM50 °FFog.5 mph94%29.98 "Hg1 mi
6:55 AM50 °FFog.3 mph94%29.95 "Hg2 mi
6:25 AM50 °FFog.3 mph94%29.95 "Hg4 mi
5:55 AM50 °FFog.3 mph94%29.98 "Hg3 mi
5:25 AM48 °FFog.3 mph100%29.98 "Hg4 mi
4:55 AM48 °FFog.3 mph100%29.98 "Hg6 mi
4:25 AM48 °FOvercast.3 mph100%29.98 "HgN/A
3:55 AM48 °FLow clouds.3 mph100%29.98 "HgN/A
3:25 AM48 °FLow clouds.3 mph100%29.98 "HgN/A
2:55 AM48 °FFog.5 mph100%29.98 "Hg6 mi
2:25 AM48 °FFog.5 mph100%29.98 "Hg5 mi
1:55 AM48 °FFog.5 mph100%29.98 "Hg4 mi
1:25 AM48 °FFog.5 mph100%30.01 "Hg4 mi
12:55 AM48 °FFog.5 mph100%30.01 "Hg2 mi
12:25 AM48 °FFog.5 mph100%30.01 "Hg2 mi
11:55 PM
Tue, May 24
48 °FFog.3 mph100%30.01 "Hg3 mi
11:25 PM50 °FFog.5 mph94%30.01 "Hg4 mi
10:55 PM50 °FLow clouds.7 mph88%30.01 "HgN/A
10:25 PM50 °FCloudy.6 mph88%30.01 "HgN/A
9:55 PM50 °FOvercast.7 mph88%30.01 "HgN/A
9:25 PM50 °FOvercast.6 mph88%30.01 "HgN/A
8:55 PM50 °FOvercast.8 mph82%30.01 "HgN/A
8:25 PM52 °FOvercast.7 mph77%30.01 "HgN/A
7:55 PM52 °FOvercast.9 mph77%30.01 "HgN/A
7:25 PM52 °FOvercast.9 mph77%30.01 "HgN/A
6:55 PM52 °FOvercast.10 mph77%30.01 "HgN/A
6:25 PM52 °FOvercast.12 mph77%30.01 "HgN/A
5:55 PM52 °FOvercast.10 mph77%30.01 "HgN/A
5:25 PM54 °FOvercast.12 mph72%30.01 "HgN/A
4:55 PM54 °FOvercast.12 mph72%30.01 "HgN/A
4:25 PM54 °FOvercast.13 mph67%30.01 "HgN/A
3:55 PM54 °FOvercast.13 mph72%30.04 "HgN/A
3:25 PM55 °FOvercast.14 mph67%30.01 "HgN/A
2:57 PM55 °FMostly cloudy.13 mph63%30.01 "HgN/A
2:25 PM55 °FMostly cloudy.13 mph67%30.01 "HgN/A
1:55 PM55 °FMore clouds than sun.15 mph67%30.04 "HgN/A
1:25 PM57 °FBroken clouds.14 mph67%30.04 "HgN/A
1:03 PM54 °FMostly cloudy.14 mph72%30.04 "HgN/A
Weather by CustomWeather, © 2016

See weather overviewHow to use our weather pages